MIDORI II (ADEOS-II) (27597 NORAD) Tracking and Keplerian Element Data

This shows tracking and keplerian element data for the satellite.

Feedback or suggestion? Click here.




ElementValue
Catalog27597
NameMIDORI II (ADEOS-II)
Epoch Orbit9793
Epoch Day12.81512904
Epoch Year2024
RAAN320.3251
Inclination98.6746
Eccentricity0.0001765
Argument of Perigee105.8457
Mean Anonmoly254.2919
Mean Motion14.281539
Decay Rate6.2E-06
L11 27597U 02056A 24012.81512904 .00000620 00000+0 26713-3 0 9991
L22 27597 98.6746 320.3251 0001765 105.8457 254.2919 14.28153900 97930



Live tracking and technical data element details for MIDORI II (ADEOS-II) (NORAD 27597). MIDORI II (ADEOS-II) can be tracked NOW for your location showing map with azimuth and elevation plus other details from your city location.







IsCatalogInMostPopularTable: catalog: 27597, numindb: 488
Update: records affected: 1



GetName: 27597 MIDORI II (ADEOS-II)

Hit Count: updated at: Fri, 19 Apr 2024 13:09:19 GMT